Torna al catalogo

COSMOS 1124 DEB

AttivoHEO
NORAD 12814·DEBRIS·🇷🇺 Russia

Lanciato Aug 28, 1979 da Plesetsk Cosmodrome

Loading…

Prossimi Passaggi (prossime 24 ore)

TLE

AggiornatoSource: Space-Track

Epoca: Sep 13, 2026, 08:44 UTC

1 12814U 79077E   26256.36399792  .00022204  00000-0  18081-1 0  9994
2 12814  60.2548 198.3751 7300799  72.8540 349.9741  2.22636382 65033

Traccia COSMOS 1124 DEB in tempo reale con AllMySat

Download on the App Store